Weather in Svetlograd

Russia / Stavropol Krai     45°19′42″N   42°51′23″E
temp.,
°C
wind,
m/s
gust,
m/s
humid.,
%
clouds,
%
prec.,
mm/h
press.,
hPa
HPBL,
m
8 march, mon
mon800:00−2sw255812 0.0 1022157
03:00−2wsw37566 0.0 1022223
06:00−2ssw35600 0.0 1021112
09:00+1wsw57480 0.0 1020847
12:00+4w56420 0.0 10191061
15:00+5wsw45490 0.0 10171216
18:00+1wsw346414 0.0 101780
21:00+1sw486957 0.0 1018288
9 march, tue
tue900:00−1sw378466 0.0 1017156
03:00−1sw358348 0.0 1017104
06:00−1sw397863 0.0 1016316
09:00+3w6125980 0.0 10161183
12:00+6w81252100 0.0 10161653
15:00+5w81172100 0.3 10161250
18:00+1wnw51083100 1.8 1017716
21:00+1wnw379291 1.8 1019488
10 march, wed
wed1000:00−1w4107682 0.0 1020481
03:00−2w4107485 0.0 1021422
06:00−2w377893 0.0 1023360
09:000wnw466573 0.0 10241108
12:00+1nw4554100 0.0 10231279
15:00+1nnw3450100 0.0 10231297
18:00−1ne2357100 0.0 102295
21:00−2ene4760100 0.0 1023418
11 march, thu
thu1100:00−2e5862100 0.0 1022652
03:00−4e6884100 0.3 1021623
06:00−5ene6989100 0.6 1022530
09:00−4e71074100 0.9 1023703
12:00−3e7956100 0.3 10231022
15:00−2ene6839100 0.3 10241371
18:00−4e5751100 0.0 10261227
21:00−5e5650100 0.0 10281010
12 march, fri
fri1200:00−5ene5649100 0.0 1029797
03:00−7ene464859 0.0 1030603
06:00−8e46480 0.0 1032467
09:00−6ese56460 0.0 1032702
12:00−3se56440 0.0 10301007
15:00−2se55470 0.0 10291111
18:00−4se57640 0.0 1029720
21:00−5se611652 0.0 1029644